Theta_e
323 322 321 320 319 318 317 318 319 318 318 317 319 321 324 327 326 325 323 323 324 325 326 326 325 324 322 324 326 327 327 326 326 326 327 328 328 326 324 319 314 312 313 312 311 311 312 313 314 314 313 314 317 318 317 317 318 319 321 321 320 321 320 320 320 318 318 319 319 318 319 319 318 317 317 317 317 318 318 318 319 318 318 318 316 326 333 328
323 322 321 320 319 318 316 317 319 320 320 319 320 321 323 325 326 326 324 323 324 325 325 325 326 325 325 326 327 327 325 325 324 324 326 328 326 325 325 320 314 312 312 312 311 310 312 314 314 314 314 316 317 318 319 318 318 320 321 321 321 322 320 320 320 318 318 319 320 319 319 320 319 318 317 317 318 317 317 318 318 319 319 318 315 319 325 327
322 322 321 320 319 318 316 317 319 320 320 321 321 321 321 324 326 326 325 324 324 325 325 325 326 326 326 326 326 326 324 323 322 323 326 325 323 324 325 321 315 312 312 312 311 309 311 314 314 314 315 317 317 318 320 319 319 320 321 322 321 322 319 318 319 317 317 319 319 319 319 320 319 318 317 317 318 317 317 318 318 319 320 318 316 317 319 326
322 322 321 319 318 319 317 316 318 319 320 321 321 321 321 322 324 326 325 325 324 324 325 325 326 326 326 327 326 325 323 323 323 323 325 323 322 324 324 320 315 313 312 312 311 309 311 314 314 314 315 317 318 318 318 319 319 319 320 321 321 321 319 317 318 316 316 318 319 319 319 319 318 317 317 317 318 317 317 318 318 317 320 320 317 317 316 323
321 321 320 319 318 319 317 316 317 319 320 321 321 321 320 321 323 325 325 325 325 325 325 325 326 326 327 326 325 323 322 324 324 323 324 323 323 323 321 318 316 315 313 312 310 309 311 313 313 313 315 316 317 317 318 319 319 319 319 319 320 319 319 316 315 315 315 317 318 318 318 318 317 317 317 317 317 317 317 317 318 316 319 322 317 317 317 320
320 320 320 319 318 318 317 316 317 319 320 320 320 320 320 319 321 323 325 325 325 325 325 326 326 326 327 326 325 322 322 325 321 320 323 322 323 322 318 316 316 315 314 312 310 309 312 313 313 314 315 316 317 316 317 317 318 319 318 318 318 318 318 315 314 314 314 317 318 318 318 317 316 317 317 318 317 317 317 316 317 316 319 323 319 316 317 318
320 320 320 319 317 317 316 315 316 318 319 319 320 320 319 319 319 321 323 324 325 325 325 326 326 326 327 326 324 320 320 322 316 318 322 321 323 321 317 315 315 315 314 312 310 310 312 313 313 314 315 316 316 317 317 317 317 318 318 317 316 316 316 314 314 314 313 316 317 317 317 317 317 317 316 317 318 317 316 315 315 315 317 319 318 316 316 317
320 320 319 318 316 316 315 315 316 317 317 318 319 319 319 318 318 319 320 322 322 324 325 325 325 326 326 324 321 317 317 320 315 316 319 319 322 322 318 315 314 315 314 313 310 310 312 312 313 314 315 316 316 316 317 317 317 318 318 317 315 315 314 313 313 313 313 315 315 315 316 317 317 316 316 316 317 317 316 315 314 315 315 316 316 315 315 317
320 319 318 316 315 314 314 315 315 315 316 318 318 319 319 318 318 318 318 319 320 322 324 324 325 325 325 321 318 316 319 320 316 315 317 318 320 320 317 314 315 314 313 312 310 310 312 312 312 314 315 315 316 316 317 317 317 318 317 316 315 315 313 313 313 313 313 314 314 316 317 316 314 315 316 317 316 316 316 316 315 315 314 315 315 315 315 315
319 318 317 315 314 313 313 314 314 314 316 318 318 318 318 317 317 317 317 318 319 322 323 323 324 324 323 318 314 316 320 321 317 315 315 316 317 317 314 313 314 313 313 311 310 311 312 311 313 314 314 314 315 316 316 316 317 317 316 316 315 314 313 313 314 313 314 314 314 316 317 315 313 314 316 317 316 315 315 315 315 315 315 315 315 315 315 315
318 317 316 315 314 313 313 314 315 316 317 318 318 317 317 316 316 316 316 317 319 322 321 319 319 320 319 314 313 315 318 319 318 315 314 315 315 314 312 311 313 313 311 310 310 312 311 311 313 314 313 314 314 315 315 315 316 317 316 315 314 314 314 314 315 314 314 314 313 316 316 315 314 314 316 316 315 315 314 315 315 314 316 317 315 314 315 315
317 316 315 315 313 312 314 316 317 318 318 317 317 316 315 315 315 316 316 318 320 320 317 315 314 314 312 310 312 313 314 316 317 315 314 315 315 313 311 310 311 311 310 310 312 313 311 311 312 313 313 313 314 314 315 314 315 316 316 316 315 315 315 314 315 314 315 315 313 315 315 315 315 315 316 316 314 314 314 315 316 314 316 319 317 314 314 315
316 315 315 314 312 313 316 318 318 317 316 316 315 316 316 315 315 317 317 318 319 316 313 312 311 310 308 309 310 311 312 314 315 314 314 315 314 313 311 309 309 309 311 312 313 313 311 311 312 313 313 313 314 314 314 314 315 316 316 317 315 315 315 315 315 314 315 314 313 314 314 315 317 316 316 315 314 314 314 316 316 315 316 318 316 314 314 314
315 315 314 313 312 313 316 317 317 315 314 315 315 316 316 315 316 316 317 317 316 313 311 310 309 308 308 310 310 309 311 313 314 314 314 314 313 312 311 310 310 311 312 313 312 311 310 311 312 312 313 313 314 314 314 313 314 315 316 317 316 315 315 314 315 314 315 314 313 313 313 315 317 317 315 314 314 313 314 316 317 317 317 317 315 314 314 314
315 314 314 313 312 313 316 316 315 314 315 316 316 315 315 315 316 316 316 315 313 311 309 308 307 307 309 309 309 309 310 312 314 314 313 314 313 311 311 311 312 312 312 311 311 311 311 311 312 312 313 313 313 313 314 313 314 315 315 315 316 316 314 315 314 314 315 313 313 313 313 315 316 315 313 313 313 313 314 316 316 317 317 317 316 314 314 314
314 313 314 313 313 314 315 315 314 314 316 317 316 315 314 314 314 314 314 312 310 309 308 307 307 308 309 310 310 310 310 311 312 313 313 313 312 311 311 312 313 312 311 311 311 311 311 311 312 313 313 312 313 314 314 313 314 315 314 314 316 316 315 315 314 314 315 314 314 313 314 316 316 315 313 312 313 313 314 315 316 316 316 316 316 315 315 314
313 313 314 314 314 314 314 314 314 315 316 316 315 314 314 314 313 312 311 310 309 308 308 307 307 308 310 310 310 310 310 310 311 313 314 312 312 312 312 313 312 311 312 312 311 311 311 312 312 313 313 313 313 314 314 313 313 314 314 315 316 316 315 315 314 314 314 315 314 313 313 315 316 316 314 312 312 313 314 315 315 316 316 316 315 315 315 315
313 313 313 314 314 314 313 313 313 314 315 315 314 313 313 312 311 310 310 308 308 307 307 308 307 309 310 309 311 312 311 310 310 312 314 313 313 313 313 312 312 312 312 312 312 312 312 312 312 312 313 313 313 314 313 313 314 314 314 315 315 314 314 314 314 314 313 314 315 315 314 314 316 316 315 314 313 313 314 315 315 315 316 316 316 316 315 315
314 314 314 314 314 313 313 312 312 314 315 314 313 312 311 311 311 310 309 307 308 308 308 309 309 311 311 309 311 312 311 311 310 311 313 313 313 312 313 313 312 312 312 312 312 312 312 313 313 313 313 312 313 314 314 315 315 315 314 314 315 313 313 314 314 312 313 314 314 315 315 315 315 316 316 316 314 314 314 315 315 316 316 316 316 316 316 315
314 314 314 314 313 312 312 311 312 313 313 312 312 312 312 313 313 312 309 308 309 309 309 309 309 310 311 309 310 311 311 310 310 310 312 313 312 313 313 313 313 313 312 313 313 313 313 313 313 314 313 313 313 314 314 314 315 316 315 314 314 314 313 314 313 311 312 314 314 315 315 315 315 316 316 316 315 315 315 315 315 316 316 316 316 316 316 316
314 314 314 313 312 311 311 311 312 313 312 311 312 312 313 313 312 312 311 311 309 308 309 309 308 310 310 309 310 311 311 311 310 310 311 312 313 313 313 313 313 313 313 314 314 313 313 313 313 313 314 314 313 314 313 313 315 315 315 314 314 314 314 314 313 312 312 313 315 315 315 315 316 315 316 317 316 316 316 315 315 316 316 316 317 316 317 316
313 313 313 312 312 311 311 311 313 312 311 311 312 312 311 311 311 311 311 310 308 308 310 309 308 310 310 309 311 311 311 312 311 311 311 312 313 313 313 313 313 313 314 315 314 313 313 313 313 313 313 313 313 313 313 313 314 314 314 314 314 314 314 313 313 312 312 312 314 315 315 315 316 316 316 317 316 316 316 316 316 316 316 317 318 318 318 317
313 313 313 312 311 311 311 312 312 311 311 312 313 311 311 310 310 310 309 309 309 308 309 309 309 310 310 310 311 311 312 313 312 312 311 312 313 312 313 313 312 313 313 314 314 313 313 313 313 313 312 312 312 312 313 313 313 314 314 313 313 315 314 312 313 312 312 312 313 315 315 315 316 316 317 317 317 317 317 317 317 317 317 317 318 318 318 317
313 313 312 312 311 311 311 312 311 311 311 313 311 309 310 310 309 309 310 310 309 309 309 309 309 310 310 310 312 311 312 312 312 313 312 312 313 312 313 313 313 313 313 313 313 313 313 311 310 312 312 312 312 312 313 313 313 316 317 314 315 316 314 314 314 313 312 312 312 314 313 314 315 315 316 317 317 316 316 316 316 315 316 316 316 316 316 316
313 313 312 311 311 311 311 311 311 311 312 312 309 308 309 309 308 309 311 311 310 310 309 309 310 310 310 311 311 311 311 312 312 312 311 312 313 312 313 313 312 313 312 313 312 313 313 308 308 311 312 313 313 312 313 314 312 314 317 317 315 315 314 314 314 313 313 313 313 314 311 311 315 316 316 317 315 314 315 314 315 315 315 315 314 314 315 314
312 312 312 311 311 310 311 311 311 311 312 311 307 308 309 308 309 311 311 311 311 311 309 309 310 310 311 311 311 311 311 311 312 312 312 312 312 312 312 312 312 312 312 313 312 313 311 306 308 313 313 314 314 312 314 315 312 313 316 316 314 315 316 315 315 314 313 313 313 313 312 311 314 316 317 317 314 314 315 314 315 315 315 314 313 313 313 313
312 312 311 311 311 311 311 311 311 311 312 309 307 309 308 307 309 311 312 312 312 311 309 309 309 310 311 312 311 310 311 312 312 312 312 312 312 312 312 311 310 311 312 312 312 312 309 307 310 313 314 315 314 313 315 315 313 315 317 316 314 315 317 316 316 315 314 314 312 313 315 312 312 315 316 315 314 314 315 315 315 315 315 314 314 313 312 312
312 311 310 310 310 310 311 311 311 311 310 307 308 309 308 308 309 310 312 313 313 311 310 308 308 310 311 312 311 310 312 312 313 312 312 312 312 311 312 312 311 311 310 311 313 312 311 311 312 314 314 315 314 314 316 316 314 315 315 315 315 317 317 317 316 315 315 314 313 314 315 312 311 315 315 314 314 315 315 315 316 316 316 315 315 314 313 313
312 311 310 310 309 309 311 311 310 310 308 307 309 308 307 308 309 310 312 313 313 310 310 309 308 310 311 311 310 311 312 312 312 312 312 312 311 311 311 312 311 310 310 312 314 313 311 310 311 313 315 315 313 312 315 318 315 313 313 315 317 317 318 318 316 315 314 313 313 315 315 311 311 314 315 314 313 315 315 316 316 316 316 316 315 314 313 313
313 312 310 310 310 310 311 311 310 308 307 308 309 308 308 308 310 311 311 313 313 310 309 309 309 311 311 310 310 311 312 312 311 312 311 311 311 310 311 312 311 311 312 314 314 311 309 308 310 312 313 312 310 309 312 316 314 313 314 315 316 316 315 315 315 314 313 313 313 314 314 312 310 312 315 315 313 314 316 315 316 316 316 315 314 313 314 314
314 313 311 310 310 310 310 310 308 307 308 308 308 307 308 309 311 312 311 313 313 310 309 309 310 311 311 311 311 311 312 312 312 311 310 310 310 310 311 311 312 313 313 314 313 312 310 309 311 311 309 310 311 311 311 312 313 315 317 315 314 314 313 313 313 313 313 313 311 310 312 313 310 311 314 315 312 313 315 315 315 316 315 315 314 313 314 314
314 315 313 311 310 309 309 309 308 307 308 308 308 307 309 310 311 312 312 312 312 311 310 310 311 311 311 311 312 311 312 312 312 312 311 311 311 311 312 312 312 312 312 312 313 314 313 312 312 311 308 310 314 313 311 311 313 315 315 314 313 313 313 314 313 313 313 312 309 308 311 312 311 312 314 314 312 313 314 315 316 316 316 315 313 312 313 314
314 315 314 311 310 308 308 308 308 307 308 308 308 308 310 311 311 312 311 311 312 311 310 311 311 311 311 312 312 312 313 312 312 312 312 312 312 312 313 313 313 314 313 313 314 314 314 313 313 313 310 310 313 313 312 312 313 314 315 313 313 313 314 315 314 313 313 311 308 308 311 311 311 313 314 314 313 313 313 313 314 314 314 314 312 311 313 314
315 315 314 312 311 308 307 308 307 307 308 308 309 310 312 312 312 312 311 312 312 311 311 312 311 311 311 312 313 312 313 312 312 312 312 312 312 312 313 312 313 315 315 314 314 314 314 313 312 313 312 311 313 314 314 314 313 315 318 315 313 314 314 314 314 313 313 311 309 308 310 311 312 313 313 313 312 311 311 311 311 312 312 312 311 311 313 314
315 314 313 313 312 309 308 308 307 308 308 309 309 310 311 313 312 312 312 312 311 311 311 311 312 312 311 313 313 312 312 313 312 312 313 312 312 313 313 312 312 314 314 314 314 314 315 314 312 311 311 311 313 313 314 315 314 315 316 315 314 315 313 312 312 312 312 312 311 309 310 312 313 314 314 313 312 311 311 310 310 311 311 311 311 312 312 313
314 313 313 313 312 309 308 307 307 308 309 309 309 310 312 313 313 312 312 312 311 311 311 311 312 312 312 313 313 312 312 313 313 313 313 313 313 313 314 313 313 313 314 314 314 313 314 314 311 311 310 310 310 311 312 313 314 314 313 313 313 313 313 311 310 309 309 311 313 311 312 312 313 314 314 313 312 311 311 310 310 311 311 311 313 313 312 313
313 312 312 313 312 309 308 308 308 309 310 310 310 311 312 313 313 313 312 311 311 311 311 312 313 313 312 312 312 312 313 313 313 313 313 313 313 313 314 314 313 313 313 314 314 314 314 313 312 313 313 310 307 309 310 310 311 313 313 313 312 311 312 311 311 311 310 311 312 311 311 311 310 312 313 312 312 312 312 311 311 312 312 312 315 314 310 312
312 312 312 312 311 310 308 308 309 310 311 311 311 312 313 313 313 314 312 311 312 312 312 313 313 313 313 312 312 312 313 313 313 313 314 313 313 314 314 313 314 313 312 312 312 316 316 313 313 313 313 311 308 310 312 310 310 312 312 313 312 312 312 310 311 312 312 312 311 310 310 310 311 312 312 312 312 312 312 311 312 312 312 314 315 312 309 311
312 312 312 312 311 310 308 308 310 311 311 311 311 312 314 314 313 314 313 312 312 312 312 313 313 313 313 312 312 312 312 312 312 313 314 313 312 314 313 314 315 313 311 311 312 316 316 315 314 311 311 311 310 311 313 312 311 310 310 311 313 314 312 311 312 312 312 312 311 311 310 310 312 313 313 313 312 313 313 312 312 312 314 315 314 311 309 311
312 312 312 312 311 309 309 309 311 312 311 311 311 312 315 315 312 313 314 314 314 314 313 314 313 313 313 313 313 313 312 313 313 313 314 313 312 312 312 313 314 312 310 312 314 315 314 313 314 312 311 312 311 312 314 314 312 310 310 311 312 313 311 311 312 311 311 311 311 312 311 311 313 313 313 313 312 312 313 313 313 314 315 315 313 311 310 311
311 313 313 312 310 310 310 311 311 312 311 311 312 313 315 315 313 312 313 314 315 313 314 316 315 313 314 314 313 313 312 313 314 313 314 313 311 311 312 312 312 312 310 311 313 314 313 313 315 312 311 312 313 312 311 313 313 312 312 312 312 313 312 312 313 311 310 310 310 311 310 311 313 312 312 312 311 311 312 312 314 315 314 313 311 311 310 311
312 314 313 311 310 310 311 311 311 312 311 312 312 313 315 314 312 312 313 313 314 314 313 315 316 315 314 314 314 314 313 313 314 313 314 313 313 313 312 311 311 310 311 312 314 314 314 314 315 313 313 312 312 310 307 309 312 313 312 313 314 313 312 313 314 313 311 308 308 310 310 312 313 310 309 310 310 309 309 309 312 313 311 310 311 311 311 311
312 313 312 310 310 311 312 311 312 312 312 312 312 314 315 314 313 312 313 314 314 314 314 315 316 315 315 315 314 314 313 313 314 314 314 314 315 313 310 310 311 311 311 314 314 313 313 315 315 313 312 312 311 310 308 309 311 312 312 313 314 314 315 314 313 313 312 309 309 310 311 312 314 310 309 309 308 307 307 307 309 311 310 310 311 311 311 312
311 311 311 311 310 311 312 311 312 312 312 311 312 314 315 315 314 312 313 314 314 313 314 315 314 314 315 315 314 314 313 312 313 314 314 315 314 310 307 308 310 311 312 313 313 312 312 315 315 313 313 313 312 312 312 311 311 311 313 313 313 315 315 313 311 311 312 313 313 312 311 313 314 311 310 310 309 308 309 307 308 311 311 311 312 312 312 313
311 311 312 312 311 312 313 312 312 312 312 311 312 314 314 314 314 313 314 315 315 314 314 314 314 314 314 314 314 314 314 313 314 315 314 315 314 309 307 308 310 312 312 312 312 312 313 315 315 314 314 314 314 314 314 314 313 312 314 315 314 314 314 312 312 311 312 316 316 312 311 312 311 311 311 311 309 310 310 309 308 311 313 313 312 313 313 313
311 311 311 311 311 312 312 313 313 312 311 310 311 313 313 313 313 313 315 315 314 315 314 313 313 314 313 314 314 314 314 314 315 314 312 314 314 310 308 307 308 310 310 310 311 312 313 315 315 313 314 314 315 316 317 317 316 314 315 316 315 314 314 314 314 313 313 316 316 313 313 313 311 311 311 311 311 310 310 309 309 311 313 314 313 313 313 313
310 311 311 311 311 312 312 312 313 312 312 310 311 312 312 313 313 312 314 315 313 314 314 313 313 313 312 313 313 314 314 315 314 313 314 314 313 310 308 307 308 308 309 309 311 312 313 314 315 315 315 316 316 319 320 319 318 316 316 317 317 315 315 315 315 314 315 315 314 315 316 315 313 312 311 312 312 311 311 311 311 311 313 314 314 313 313 313
307 308 309 310 311 312 312 312 312 312 312 310 311 312 312 313 313 312 313 314 314 314 314 313 313 313 312 313 314 314 314 315 314 314 315 315 312 310 309 309 308 308 309 310 311 312 313 312 314 315 316 318 318 318 318 318 317 317 316 317 317 315 314 315 315 315 316 315 313 315 317 316 314 312 312 313 313 312 312 312 312 312 313 314 314 313 313 313
304 305 306 307 309 311 312 312 312 312 311 310 311 312 312 313 313 313 313 314 314 314 314 315 314 313 314 314 313 314 315 315 315 315 314 314 314 312 311 311 309 308 310 312 311 312 312 312 315 315 315 317 317 316 317 317 317 318 318 316 315 314 314 314 314 314 315 315 314 316 318 318 315 313 313 313 313 313 312 311 312 312 312 313 313 313 313 314
302 304 305 306 307 310 312 312 311 311 311 310 311 312 311 312 313 314 315 314 315 314 315 316 315 314 314 314 314 315 315 314 315 315 313 313 313 313 312 312 311 309 310 311 310 311 312 313 316 315 313 316 316 314 314 316 317 318 319 317 315 314 314 314 314 314 315 315 315 315 317 318 316 314 314 313 312 311 310 310 311 311 312 313 312 313 313 313
302 302 303 305 306 308 311 312 311 311 311 310 311 312 312 312 312 315 315 315 315 315 314 315 316 315 314 315 315 315 315 314 315 315 313 313 314 313 313 313 312 311 311 310 311 313 312 311 312 311 311 315 315 313 312 313 314 315 316 317 315 314 314 314 314 314 314 315 316 316 316 316 315 314 314 313 311 310 311 311 311 311 312 313 312 313 314 313
301 302 302 304 305 306 309 312 311 310 311 311 310 312 312 312 312 314 315 314 315 316 315 315 316 315 314 314 314 315 315 315 315 314 313 313 313 312 313 312 310 310 311 311 313 314 312 311 311 310 311 314 312 311 312 312 311 311 313 315 316 315 314 314 314 314 314 314 315 316 315 315 315 314 313 313 313 312 312 312 312 312 312 312 312 313 313 313
Wind_Speed
36 35 33 31 30 28 30 31 32 33 34 39 42 40 40 39 37 37 36 36 35 33 32 30 29 31 33 32 28 23 20 18 19 22 26 25 24 21 13 8 5 5 6 6 8 9 9 9 9 9 7 8 9 7 10 9 9 7 5 5 5 5 4 4 6 3 2 6 10 12 15 11 8 10 7 6 7 4 4 6 5 6 8 4 5 12 12 16
36 33 32 31 29 28 30 32 33 33 33 36 38 38 39 39 38 37 37 36 36 35 33 31 30 31 32 30 25 21 19 17 16 21 25 23 23 25 16 9 6 7 8 8 9 10 11 10 9 10 8 8 9 8 9 8 9 8 4 6 6 3 3 3 4 4 2 5 12 13 14 10 8 11 10 7 8 8 6 7 7 6 8 8 6 10 13 17
35 32 32 31 29 28 30 34 35 35 34 34 35 35 37 39 38 38 37 36 37 36 34 31 30 30 30 27 22 20 19 16 16 21 23 21 21 24 18 12 9 7 8 10 10 11 12 11 9 9 10 9 8 8 8 8 9 7 4 6 4 5 6 5 5 6 4 4 12 13 11 8 7 11 10 8 7 9 8 8 10 10 10 11 9 9 13 17
35 32 31 30 28 28 31 35 37 37 35 33 34 34 35 38 38 38 38 37 36 36 34 31 30 29 28 25 22 20 17 11 17 23 20 19 20 20 18 14 11 8 8 10 11 12 13 12 10 10 11 10 9 7 7 9 8 6 5 3 2 6 5 5 6 6 4 4 10 13 11 8 7 9 10 8 6 7 10 9 9 9 11 14 13 9 13 18
36 33 30 30 29 28 32 36 38 37 36 34 33 33 34 36 37 37 38 37 36 35 33 31 30 29 27 26 24 20 14 5 14 27 23 20 21 20 19 18 14 10 10 11 11 13 12 12 11 10 12 10 9 7 8 10 8 5 3 3 4 4 4 6 5 6 5 4 8 12 11 9 9 8 10 11 7 3 4 7 8 5 8 14 15 11 14 19
36 33 31 31 30 30 32 36 38 37 36 34 33 33 34 36 37 37 37 36 35 33 31 29 28 28 29 28 24 20 15 4 6 19 25 23 23 23 23 21 17 12 12 14 13 14 12 12 12 11 12 10 10 9 8 11 9 5 3 3 4 4 5 6 4 6 6 4 8 10 9 10 10 9 9 12 9 3 5 6 8 8 8 11 13 12 14 17
35 33 32 31 31 31 32 35 38 38 36 35 33 32 33 35 36 36 36 35 33 32 29 26 24 26 29 27 22 17 16 12 1 6 19 23 24 27 25 19 18 17 16 16 15 14 12 12 13 12 12 9 10 12 8 10 11 7 3 5 4 6 5 6 5 8 7 3 5 6 7 9 10 7 6 12 10 3 4 5 5 8 11 11 10 12 13 14
35 34 33 31 31 31 33 35 37 38 37 35 33 31 32 34 35 36 35 33 31 30 28 27 25 27 30 28 23 15 20 22 5 1 12 19 24 28 24 17 18 21 22 19 17 16 13 14 15 13 11 7 9 11 8 9 11 9 3 7 5 5 6 6 6 8 6 3 4 5 6 6 6 4 4 11 9 8 10 7 5 5 8 12 11 11 13 14
36 35 33 31 31 31 33 34 36 38 37 34 33 31 32 33 34 35 34 32 31 31 29 28 27 30 31 28 21 13 23 28 11 3 10 17 22 25 21 16 19 23 26 20 18 17 15 15 16 13 9 6 7 8 9 10 9 7 6 9 7 7 7 6 6 7 5 4 5 7 7 3 3 4 6 9 9 11 13 12 11 7 5 8 11 12 13 14
35 34 32 31 30 30 32 34 35 37 37 35 33 32 32 32 33 33 33 32 31 32 31 29 28 31 31 26 18 11 21 28 17 10 14 18 21 22 18 18 22 26 26 21 20 19 17 15 14 14 10 5 6 6 9 9 3 8 12 10 9 8 6 5 6 7 4 5 5 6 5 3 2 4 4 9 13 13 12 12 14 14 11 9 10 13 14 15
35 33 31 30 29 30 33 36 36 37 37 36 33 32 31 31 31 32 32 32 33 34 32 30 30 31 30 26 18 12 16 24 21 16 16 21 23 18 14 18 25 28 25 22 21 21 21 16 12 14 9 3 6 4 5 5 1 12 16 11 9 7 7 5 6 7 4 5 5 2 3 3 3 3 3 8 12 13 12 13 14 15 13 13 12 13 14 16
35 33 33 31 31 34 37 37 37 37 34 33 32 30 30 30 30 32 34 35 36 35 33 32 31 31 29 23 18 14 12 20 22 18 17 24 27 17 10 15 24 25 22 22 22 21 22 18 13 14 8 3 6 4 4 5 3 12 14 9 7 6 6 5 5 6 3 5 7 2 3 5 7 9 7 9 10 10 10 11 13 16 14 13 15 16 15 17
35 34 34 33 35 40 40 35 35 34 30 29 30 29 28 29 30 33 36 37 37 35 33 32 31 32 27 17 19 16 11 17 21 19 21 26 26 18 10 13 20 22 21 21 20 19 21 18 12 14 12 6 4 4 4 6 4 9 10 6 7 6 6 5 4 5 2 5 10 5 3 6 11 13 10 11 12 10 9 9 10 13 14 15 17 18 18 17
35 35 35 34 38 42 39 32 32 32 29 28 29 30 29 28 30 33 36 37 36 35 34 32 32 32 23 12 17 19 13 16 20 19 22 26 23 18 13 14 18 20 19 19 19 17 19 17 11 12 12 6 4 5 5 6 4 7 5 5 7 6 6 7 5 6 4 6 9 5 5 4 7 11 9 11 13 10 9 10 10 10 12 16 18 19 20 19
35 34 36 36 38 41 38 32 31 31 30 30 30 29 29 28 29 32 34 35 35 35 33 33 33 27 17 9 12 19 18 15 16 17 21 24 22 18 15 16 17 18 17 18 18 16 17 16 12 9 7 6 8 7 5 5 5 6 5 5 7 6 5 7 6 5 3 5 8 6 5 5 5 9 7 10 12 10 9 10 10 10 10 13 16 19 20 21
35 35 37 37 38 39 37 33 31 32 32 31 29 28 28 27 28 31 31 32 33 34 32 32 33 23 10 9 11 19 24 20 16 17 21 22 20 17 16 16 16 16 16 16 15 14 15 14 11 8 7 8 8 7 5 5 6 6 6 5 6 8 6 6 5 4 1 4 9 8 5 4 4 7 5 9 10 10 11 11 11 11 10 11 13 16 18 20
36 37 37 37 37 36 35 33 32 35 32 30 29 28 26 25 27 29 29 30 31 32 30 28 30 17 5 10 12 17 27 27 20 17 19 20 18 16 16 16 16 15 13 13 12 12 14 12 8 7 7 7 8 8 7 7 7 6 6 3 4 7 7 5 4 5 5 4 8 10 8 7 3 7 6 8 8 8 9 11 12 12 11 11 11 13 16 18
38 38 37 37 35 33 33 34 36 36 31 29 29 27 25 24 26 27 28 29 29 28 23 24 26 11 7 14 12 15 27 31 25 18 16 18 18 16 17 16 14 14 12 10 10 12 12 9 8 6 6 8 9 9 8 8 9 9 8 5 3 4 5 4 4 6 8 6 7 9 11 12 8 6 8 10 9 8 7 8 9 11 12 12 12 13 15 18
39 38 37 36 32 32 32 35 39 37 33 30 28 28 26 24 23 22 27 32 29 20 11 21 28 6 3 16 16 15 23 27 26 20 15 18 19 17 16 15 15 16 13 8 8 12 10 6 6 7 8 9 10 12 10 6 9 12 12 9 6 6 5 3 4 3 4 6 8 11 11 12 12 9 9 11 12 10 9 8 8 10 11 12 13 14 16 19
38 37 37 34 32 34 34 38 40 38 37 32 34 34 26 25 18 13 27 32 26 17 5 21 32 5 4 17 24 19 17 20 24 22 17 19 20 18 15 14 15 15 10 7 8 10 11 7 6 9 10 12 14 13 5 2 6 11 11 10 7 7 6 5 6 3 2 3 8 12 11 12 12 11 10 11 12 10 11 12 12 11 12 13 14 15 17 20
38 37 37 33 33 35 36 40 39 39 37 34 41 34 22 29 17 14 32 22 15 14 4 22 35 9 2 16 27 23 16 17 22 24 20 20 21 16 14 14 12 9 8 9 8 8 10 7 9 11 8 10 11 8 2 2 4 8 8 8 7 7 4 5 5 4 3 3 6 7 9 12 12 11 12 12 11 12 14 15 16 15 14 15 15 17 18 18
38 37 36 34 35 36 38 41 38 38 34 34 40 23 17 28 12 20 37 15 7 10 4 26 32 8 2 14 24 24 17 13 17 24 22 23 22 14 12 13 10 8 7 8 7 6 8 9 12 10 4 4 5 3 3 3 4 6 6 6 6 5 5 5 4 5 4 3 3 2 5 11 11 11 12 14 14 14 16 17 16 15 14 15 15 16 18 20
38 37 36 35 37 37 39 41 37 37 35 34 34 17 17 23 11 26 34 13 10 9 6 27 28 10 5 14 23 21 16 12 13 23 26 25 22 13 13 13 10 9 8 9 9 6 8 7 6 8 8 6 4 4 6 4 4 4 5 6 5 6 5 2 4 6 4 2 2 2 5 8 9 10 12 15 16 13 13 14 15 16 17 16 15 15 17 21
38 37 36 36 38 38 40 39 35 37 35 31 28 19 18 21 22 33 25 10 10 5 8 24 24 17 10 14 24 17 11 10 11 22 29 27 21 13 12 12 10 9 8 12 13 10 6 0 1 5 8 8 6 7 8 6 5 4 4 6 4 7 5 2 6 7 3 3 2 4 6 7 9 11 11 10 10 10 11 13 16 20 23 23 21 21 22 22
38 37 37 38 38 38 39 37 35 35 31 29 26 22 22 26 34 34 17 8 8 4 9 18 17 18 14 16 22 15 9 8 10 23 31 28 23 14 9 9 8 8 11 14 13 10 4 2 1 5 8 11 9 8 9 8 6 4 5 4 1 6 6 7 9 8 3 5 4 2 5 5 5 11 11 6 5 8 9 10 14 17 20 23 24 25 25 25
38 37 39 39 37 39 39 34 35 32 27 29 29 26 29 36 36 27 12 6 6 5 8 13 13 15 14 15 20 15 8 6 10 23 30 26 24 17 9 6 3 5 10 10 7 4 2 2 1 5 8 10 9 9 10 9 7 5 4 1 2 4 7 9 9 6 2 2 2 2 6 4 3 7 7 5 4 7 7 8 12 12 11 15 19 20 22 24
38 37 40 40 39 42 37 30 32 31 26 30 32 31 35 39 33 22 10 3 6 9 9 10 12 14 14 15 21 15 5 8 12 18 25 23 21 16 9 7 3 2 3 4 4 1 4 5 2 5 7 7 8 8 8 10 7 2 0 1 5 6 7 9 8 6 1 2 3 2 3 4 5 3 4 4 4 7 8 8 10 9 8 8 11 14 17 19
38 38 39 40 41 39 30 26 32 34 32 32 34 35 37 36 29 19 7 3 6 9 8 8 9 14 15 17 21 9 4 14 11 12 23 22 17 11 6 8 7 4 2 3 7 1 4 6 6 8 8 7 6 2 4 10 7 0 1 1 4 5 7 8 6 4 0 0 4 4 3 3 6 3 4 3 5 8 10 9 9 8 7 6 6 9 13 16
37 37 37 37 39 35 24 23 33 36 34 34 34 37 37 31 22 12 4 4 7 6 8 11 11 13 14 16 16 6 7 10 3 11 23 18 14 8 3 7 8 7 3 2 3 1 2 2 2 5 6 5 3 4 3 4 3 4 4 3 5 4 5 5 4 3 2 4 5 5 4 4 5 4 4 3 4 8 8 7 7 7 7 5 5 6 10 12
35 35 35 36 38 33 20 20 33 37 34 36 37 38 36 24 14 8 6 5 6 6 8 12 13 14 15 14 9 7 9 5 4 15 16 10 12 7 5 9 8 7 3 4 4 2 2 1 2 1 2 2 5 6 5 3 5 9 7 6 7 5 4 3 2 2 3 6 3 3 2 3 4 4 5 3 2 3 4 6 6 7 7 6 4 4 6 8
34 32 34 36 36 30 22 25 37 38 35 37 40 39 30 14 7 8 6 5 7 6 6 10 14 16 19 16 9 8 8 5 9 16 10 7 9 7 8 8 5 4 3 2 3 2 2 3 1 2 1 2 4 6 6 3 6 6 5 7 6 4 3 3 3 3 6 5 1 2 1 2 5 4 2 1 2 2 1 5 7 8 8 7 5 3 4 6
34 31 31 34 34 29 26 32 40 39 35 38 42 37 20 7 6 8 6 8 8 7 8 12 14 15 19 17 10 10 9 6 11 13 10 9 7 8 9 7 6 5 4 6 4 3 3 3 1 2 1 4 4 5 5 2 3 3 6 8 6 5 5 5 5 5 6 2 3 1 1 3 7 7 4 3 2 4 2 2 6 8 9 7 5 3 4 6
34 30 29 32 31 31 30 33 40 40 37 40 38 25 10 6 9 9 8 8 5 6 11 13 14 15 18 15 9 11 9 6 10 12 11 10 8 8 6 4 9 6 3 7 5 3 3 2 2 3 2 6 6 5 5 4 5 7 8 8 7 6 5 6 6 5 4 1 2 0 1 3 5 6 8 7 2 6 5 2 3 6 6 6 5 3 4 8
33 28 29 28 28 31 29 33 41 40 39 41 28 12 7 9 9 9 11 7 4 7 11 14 14 16 17 12 10 12 6 3 8 10 10 9 8 8 5 5 8 4 3 7 5 5 6 3 4 4 3 6 6 2 2 5 8 5 3 3 6 5 4 5 5 4 3 3 2 1 1 4 3 1 2 2 3 5 6 6 5 5 5 5 3 2 6 9
30 28 26 23 26 31 30 35 41 39 42 36 15 6 10 10 7 10 10 6 7 9 13 16 15 15 13 8 9 10 1 1 7 6 7 10 9 9 9 9 9 5 6 7 3 4 4 1 1 1 1 3 4 2 3 3 8 3 1 1 4 2 1 1 1 1 2 1 2 3 3 4 3 2 3 5 3 3 5 7 8 7 7 7 4 3 7 10
29 29 24 21 28 31 31 38 40 40 42 27 8 8 11 6 6 9 8 8 9 12 15 16 12 12 11 6 6 7 1 2 8 6 6 8 7 10 10 9 10 9 8 6 3 2 3 1 2 1 1 2 2 2 3 1 3 3 2 3 2 2 3 3 1 2 1 3 3 4 4 3 3 6 4 6 5 4 5 6 7 8 9 8 5 5 9 10
32 31 24 20 26 29 33 39 40 41 35 15 8 11 6 1 2 5 9 12 13 16 16 12 9 10 11 7 8 11 5 5 8 6 6 6 6 10 11 8 12 14 8 3 2 2 3 2 2 1 2 3 4 2 2 3 2 2 4 4 3 1 1 1 2 2 2 5 2 3 5 4 3 3 2 6 6 6 6 6 7 7 9 8 7 8 10 11
33 29 22 18 25 30 34 38 39 38 22 7 11 13 3 2 1 3 13 16 15 17 13 9 9 10 11 9 9 13 10 8 8 6 7 7 5 11 13 7 8 13 7 1 1 1 2 2 2 2 1 2 2 1 2 1 2 1 1 1 2 2 3 3 3 2 4 5 3 3 5 4 5 4 2 5 7 8 8 7 7 8 9 9 10 11 11 12
32 25 17 19 27 30 33 37 35 26 12 6 12 11 3 3 0 3 14 16 14 14 11 10 9 8 11 11 11 13 12 10 10 8 6 6 5 9 15 9 4 8 7 3 2 2 2 1 2 1 1 1 0 2 4 4 1 1 1 0 0 1 2 3 3 3 3 5 4 3 3 3 5 6 5 4 5 7 9 8 7 9 10 11 13 13 12 13
31 19 11 21 31 30 32 33 25 14 8 8 9 6 4 5 2 3 8 11 8 7 8 11 11 9 10 12 12 12 11 9 11 9 6 8 6 4 10 11 6 6 6 4 1 2 2 1 2 2 1 1 3 2 3 4 4 3 4 5 3 1 0 1 3 1 1 3 5 4 3 2 2 4 6 4 4 3 4 5 7 8 10 13 15 15 14 15
28 13 8 25 32 31 30 25 14 9 7 8 7 4 4 6 6 5 4 5 3 1 3 7 9 10 9 11 11 10 8 7 9 7 4 8 9 4 6 11 10 9 6 3 2 3 1 1 3 4 3 4 2 1 1 0 1 3 4 6 6 4 3 3 4 1 0 2 2 3 3 1 2 1 2 2 4 3 2 1 4 6 10 15 16 16 16 17
21 6 10 30 35 34 29 15 8 9 7 6 4 4 6 7 8 7 5 4 3 3 1 2 5 7 8 9 10 10 8 6 8 8 4 7 10 5 6 11 16 17 11 3 2 2 2 2 4 4 3 2 1 2 1 0 1 2 3 3 4 5 5 6 5 3 3 1 1 1 3 1 2 1 1 2 2 2 2 1 2 4 10 15 15 16 17 18
14 7 15 32 36 34 24 8 7 9 6 5 5 7 6 6 7 7 7 6 3 1 2 2 2 4 5 7 8 11 11 6 7 9 6 6 5 2 6 13 18 18 10 3 3 2 2 3 4 3 2 1 1 1 1 1 1 3 4 3 3 5 4 3 2 2 3 4 3 3 4 3 1 1 0 1 1 1 2 4 4 4 9 13 14 16 19 20
14 15 21 30 34 31 18 7 10 11 7 7 7 5 4 4 7 9 9 8 4 4 5 4 2 2 3 4 7 12 12 7 6 7 3 3 3 3 7 15 16 13 9 5 7 9 5 3 4 4 3 2 2 2 2 2 3 5 5 5 6 4 3 2 1 1 3 6 7 5 6 4 1 1 1 1 2 2 3 5 6 6 9 14 16 18 20 22
13 13 17 27 35 31 15 4 7 10 10 11 10 9 7 3 4 7 8 7 3 3 5 3 2 4 4 4 5 9 12 5 2 4 2 1 2 2 5 14 15 10 6 4 10 14 8 3 6 7 5 6 6 6 7 5 4 4 4 6 9 8 7 5 3 3 5 6 7 7 7 3 2 2 3 3 3 3 2 4 7 9 10 15 19 21 23 24
9 5 9 17 27 28 16 7 4 7 11 12 9 10 12 7 4 3 5 5 2 2 4 3 4 5 5 7 8 8 11 3 2 4 5 3 2 2 2 9 11 7 2 4 11 13 4 2 7 9 9 9 8 9 9 7 6 8 11 11 12 12 12 7 3 6 7 4 5 8 8 5 3 4 5 4 5 5 4 5 9 11 13 16 20 24 25 25
5 4 7 10 13 16 15 13 10 6 11 14 9 9 14 11 7 5 3 2 4 5 3 3 5 7 8 12 9 9 13 7 3 5 6 4 3 3 2 5 6 6 3 5 11 9 2 3 9 12 12 8 3 3 7 8 8 12 15 13 11 12 13 9 7 10 7 4 6 10 9 9 7 7 8 7 6 5 6 8 10 12 15 17 20 24 26 25
3 3 8 9 7 7 12 17 17 11 14 16 9 9 16 14 11 9 5 2 6 8 3 2 6 10 13 15 9 8 11 8 5 6 5 5 4 3 3 2 2 5 3 5 7 4 2 7 10 12 12 4 3 3 5 8 8 8 9 10 11 13 14 12 13 13 8 7 11 11 10 12 11 9 9 7 7 7 8 10 11 13 15 17 20 25 26 25
4 3 6 8 3 3 10 15 16 14 15 15 10 10 17 18 15 12 7 5 7 8 7 7 10 12 14 14 10 9 10 9 7 6 4 5 5 4 3 1 1 3 3 4 4 1 2 6 7 10 12 5 4 3 2 6 7 6 7 10 11 13 15 14 14 15 13 12 14 10 8 10 10 9 9 7 8 7 7 10 13 15 17 19 22 25 26 25
4 3 4 5 1 2 12 16 14 12 12 13 11 10 14 19 18 12 8 8 10 10 10 10 12 14 13 12 11 9 11 13 11 9 9 7 4 4 4 3 3 3 2 3 2 0 2 3 4 6 7 4 4 3 0 2 4 4 6 9 11 12 13 14 14 14 14 14 15 12 9 8 8 9 8 8 9 7 6 9 12 14 17 21 24 25 25 25
4 4 5 5 2 3 11 14 13 11 10 10 12 11 14 19 20 13 7 6 7 9 12 11 10 11 8 10 12 9 10 12 8 12 20 14 9 11 8 5 9 8 4 4 3 2 2 1 3 4 6 4 2 2 3 4 2 0 3 8 13 12 12 13 14 13 13 14 15 13 11 10 6 8 9 8 8 7 6 8 10 12 17 22 24 25 24 25
4 5 6 5 2 1 6 10 12 12 10 11 13 11 12 17 18 12 6 4 4 5 12 13 11 9 4 8 12 7 7 7 2 11 23 14 8 13 8 7 16 14 8 7 4 3 5 4 2 4 7 3 2 2 5 5 1 4 7 11 15 15 14 13 11 12 15 15 13 10 11 8 4 9 10 7 6 8 10 12 13 14 17 20 22 22 22 25
Wind_Direction
199 200 203 204 204 205 206 203 201 202 203 206 210 211 211 211 209 207 205 203 202 200 200 201 206 212 213 215 218 217 215 222 224 226 231 226 218 215 208 196 215 256 248 262 271 288 284 256 246 240 239 221 217 211 205 214 216 215 219 216 216 208 187 170 175 155 107 135 146 159 173 181 161 167 188 187 200 202 175 186 195 199 202 216 172 160 172 186
199 199 201 204 203 202 202 200 198 198 199 202 206 207 209 211 209 207 205 204 203 202 202 202 204 208 212 215 214 207 205 209 218 228 226 221 217 214 212 211 231 252 241 258 276 286 275 251 243 235 225 215 217 204 202 210 209 218 225 215 220 189 111 90 131 99 21 154 152 161 178 191 170 162 177 193 195 194 201 196 188 184 195 212 197 184 186 182
198 196 199 204 203 200 201 199 196 196 197 199 202 204 207 209 209 206 206 204 204 204 204 205 205 207 209 208 205 199 201 208 228 235 218 213 218 212 213 218 232 251 245 260 277 280 266 254 248 227 218 219 212 195 198 200 206 223 230 223 201 122 91 76 107 96 46 131 151 160 173 186 164 155 172 199 194 190 211 197 188 194 190 201 199 196 195 184
196 195 198 202 199 198 200 199 198 198 197 198 200 201 205 208 208 206 206 205 206 206 205 206 206 207 206 199 198 199 200 214 242 239 215 209 217 209 213 219 230 255 258 262 273 276 264 257 255 223 220 223 198 187 196 194 200 204 212 247 110 122 120 101 103 104 86 125 155 153 163 178 159 162 177 194 197 193 214 200 189 201 189 195 199 191 194 188
195 195 198 198 193 195 200 200 199 199 196 196 199 200 203 207 208 206 206 206 206 208 208 207 207 208 201 193 198 196 190 211 253 242 222 211 213 204 207 215 229 259 268 261 265 270 258 249 249 224 224 220 184 189 206 198 206 202 194 10 64 119 123 111 113 129 119 124 151 151 167 172 153 175 191 199 212 165 175 182 181 189 170 189 204 194 185 192
195 196 197 195 193 195 200 200 199 199 196 195 198 200 203 206 207 206 206 206 206 207 208 207 207 204 192 190 198 186 180 198 274 237 221 215 209 199 204 217 232 254 268 263 260 260 250 238 234 217 220 219 189 192 200 196 214 224 173 79 60 62 96 115 130 157 141 133 162 161 164 156 159 188 197 211 225 107 108 158 189 199 171 180 208 207 192 195
195 196 195 193 195 196 198 200 201 201 197 195 198 200 203 206 207 207 206 205 204 205 205 203 202 197 185 187 193 179 195 220 309 211 208 211 206 198 203 218 237 255 264 258 254 246 234 227 222 213 216 218 197 192 185 190 217 245 165 134 88 62 97 118 136 159 150 151 165 158 160 165 183 187 185 218 229 206 178 157 168 195 192 197 213 216 210 208
194 194 194 193 195 197 199 200 201 203 200 196 199 202 204 206 207 207 206 203 201 201 199 197 196 192 184 183 181 176 211 214 185 150 198 199 199 195 199 209 229 255 264 253 246 237 226 224 218 213 219 216 199 190 175 182 216 241 168 132 117 83 101 115 134 153 150 162 162 170 175 168 191 185 195 223 217 219 229 206 172 160 178 201 211 214 215 216
193 192 192 193 193 197 199 201 203 204 200 196 198 202 203 205 206 205 204 201 197 196 193 193 194 190 184 180 173 182 217 208 181 191 191 186 189 187 199 216 219 243 259 247 237 232 225 226 216 213 236 230 198 189 183 193 212 210 150 127 126 105 109 114 127 144 149 161 165 184 180 135 184 219 234 223 207 214 229 228 219 206 184 193 204 212 215 218
191 191 190 191 193 197 196 196 198 197 195 194 197 201 202 204 206 204 201 196 192 190 188 187 185 185 181 174 171 196 222 212 196 191 183 177 179 183 208 224 212 228 245 237 229 225 220 226 218 217 247 257 199 196 197 209 205 142 129 116 118 107 113 123 124 138 138 144 172 194 172 120 163 219 230 197 208 223 223 228 227 222 222 219 212 214 216 219
189 189 190 190 193 194 190 187 187 188 190 192 194 200 203 204 203 199 195 190 187 186 185 182 178 181 179 172 180 207 218 212 205 199 187 176 179 193 222 215 207 220 231 229 227 221 217 224 224 216 234 247 190 195 205 218 161 137 129 108 113 110 114 122 125 143 148 150 181 211 152 131 143 212 229 183 204 222 217 222 227 223 219 222 224 222 220 220
190 189 190 189 190 188 183 182 184 185 188 193 198 202 202 201 197 191 187 185 184 184 181 179 180 181 177 178 198 209 210 206 202 204 194 181 189 212 241 210 206 217 222 226 227 221 218 218 221 217 224 234 173 166 194 187 157 156 147 125 133 137 137 137 128 153 186 165 170 170 180 198 198 214 213 190 196 194 197 211 221 224 214 210 219 223 225 222
188 188 188 187 187 185 182 181 184 189 193 196 198 194 193 193 188 183 182 182 181 180 178 176 179 178 174 190 209 204 208 204 198 206 197 186 203 230 249 218 210 216 217 222 225 223 218 212 218 221 228 250 173 152 161 146 155 175 175 162 152 171 176 154 140 166 190 159 169 183 241 221 204 203 191 191 201 189 193 203 208 218 211 209 216 219 224 224
186 187 186 185 186 186 186 186 188 193 191 188 187 185 186 185 181 178 177 178 177 176 175 175 176 174 175 200 209 200 204 204 200 207 196 192 215 238 238 222 212 213 214 215 221 223 216 210 220 223 228 240 164 152 140 134 180 181 179 188 178 197 174 143 146 176 178 157 173 204 256 239 173 172 178 197 205 200 215 218 206 206 204 211 218 218 221 225
185 186 183 183 184 184 186 188 188 187 180 179 182 183 182 178 175 173 173 173 173 172 171 173 172 170 183 215 212 202 200 200 202 202 190 194 220 233 221 214 209 212 214 212 214 216 211 208 215 212 198 182 159 162 156 156 198 183 179 195 198 205 154 134 151 177 187 160 185 214 239 242 142 136 172 203 204 207 223 226 213 206 201 208 217 220 222 225
183 183 182 182 182 182 186 188 184 179 177 179 181 179 175 172 170 168 169 168 168 169 169 172 171 165 190 212 202 204 203 203 201 196 191 198 219 223 210 206 206 211 211 210 211 210 206 205 213 201 157 158 172 180 173 172 194 198 205 195 187 196 169 145 154 179 195 152 195 223 254 251 142 127 180 205 204 211 223 228 220 213 209 206 212 219 223 226
181 181 182 182 182 184 187 189 184 177 178 179 176 173 167 163 163 162 162 164 165 166 165 170 171 167 220 212 197 203 204 205 201 195 194 199 209 208 202 199 199 205 202 203 205 195 194 191 198 195 171 183 195 192 185 189 195 192 209 206 174 199 189 163 148 166 184 188 209 218 242 256 171 133 175 192 189 197 216 227 223 219 217 212 211 216 221 226
180 181 183 182 185 186 188 191 185 179 178 177 173 168 159 153 156 157 158 158 157 158 162 170 170 174 236 209 197 200 204 206 203 199 192 191 195 193 197 196 191 190 178 180 185 177 179 180 190 197 193 203 202 198 198 200 196 181 191 200 162 207 223 194 154 155 179 207 223 208 224 246 234 171 170 178 183 197 217 225 227 226 222 217 216 220 224 227
180 182 182 182 186 186 186 185 181 180 177 172 167 157 145 141 145 154 158 155 153 154 168 179 176 176 246 190 188 194 203 205 202 201 193 185 185 183 191 191 181 174 163 161 177 178 172 171 202 207 198 199 201 207 210 213 201 183 186 201 190 190 212 176 104 111 182 201 218 219 226 240 239 222 199 190 192 211 232 236 240 235 227 223 222 225 229 231
180 181 180 181 184 183 183 178 175 179 176 166 155 146 141 146 145 158 164 161 167 172 177 178 179 189 31 171 184 190 192 194 197 199 194 185 178 173 176 171 170 176 176 175 170 175 181 183 205 208 203 200 203 208 216 305 222 190 188 203 202 193 193 145 101 98 204 218 221 225 238 246 245 240 230 210 195 210 235 241 241 236 232 229 225 227 231 234
179 179 179 180 180 181 181 176 175 179 173 161 154 150 159 163 157 171 166 162 180 183 184 175 178 197 1 169 180 182 172 173 190 195 192 184 173 166 166 162 169 188 195 182 154 155 186 208 211 208 210 196 196 199 187 325 225 195 192 196 202 202 178 114 105 128 154 239 225 215 245 252 250 250 246 233 215 221 234 239 241 239 236 231 226 228 231 236
178 178 179 178 179 181 180 176 177 176 169 162 160 157 170 169 171 174 161 139 154 167 154 172 178 204 232 173 174 171 161 157 181 189 185 178 173 169 168 171 185 183 169 169 151 149 195 222 210 191 151 129 141 150 180 237 221 202 198 198 208 185 128 99 108 126 148 230 218 174 257 258 254 253 248 240 235 234 235 237 240 239 236 231 226 226 231 239
178 178 178 177 178 178 177 175 175 172 167 168 169 161 168 176 182 166 155 125 145 153 144 170 182 206 159 165 169 161 159 162 171 182 181 175 175 176 172 180 195 177 163 182 182 182 198 220 200 150 126 128 127 164 196 217 220 217 202 203 203 159 151 182 157 141 156 230 308 332 282 268 259 252 246 238 235 233 229 229 231 232 234 231 225 225 231 238
176 177 177 176 174 174 173 171 171 170 170 173 172 157 159 170 159 154 148 125 145 147 167 171 182 198 177 163 171 165 168 175 170 178 179 174 173 175 176 187 197 181 182 197 201 204 192 160 353 140 152 168 163 178 199 208 207 217 220 221 197 161 157 70 133 145 151 204 265 305 281 267 247 237 238 226 219 226 223 223 231 237 241 241 238 236 237 239
175 176 176 174 172 172 170 168 171 172 173 177 168 152 154 157 152 152 144 129 146 132 175 176 178 193 190 170 173 171 167 172 173 178 177 174 173 167 170 193 201 195 194 196 205 216 194 48 285 174 170 184 182 185 200 210 209 204 219 234 208 169 147 103 132 152 177 207 200 236 259 264 223 222 230 199 189 222 212 216 234 239 242 245 247 246 246 246
175 176 174 172 171 169 167 170 176 174 177 179 164 151 156 153 149 154 146 138 170 141 160 180 179 188 189 176 170 160 157 176 181 179 176 175 176 167 162 178 199 209 192 185 209 234 130 99 209 171 169 182 192 203 196 201 219 209 207 193 108 157 145 133 156 175 213 207 139 192 243 260 203 207 211 182 200 224 202 211 231 228 227 238 246 248 249 249
174 176 174 171 170 167 166 171 174 173 179 175 161 156 160 154 152 160 156 157 188 155 151 176 179 182 182 176 170 160 151 163 165 178 178 177 176 173 173 170 167 206 163 151 199 218 116 150 177 163 171 177 194 210 185 190 222 214 74 154 147 159 160 156 174 197 224 88 119 197 241 264 256 209 147 156 217 230 218 218 218 209 202 215 234 243 245 246
174 176 174 172 170 167 165 168 170 173 175 165 158 161 160 155 159 168 175 195 167 145 150 167 174 179 175 172 174 166 129 153 154 178 182 179 174 173 188 185 174 162 119 178 199 175 103 162 171 164 177 187 196 228 156 186 217 160 24 255 142 153 167 168 184 197 116 260 202 185 171 248 257 220 134 157 233 236 227 213 194 185 181 181 207 233 243 244
173 175 176 173 167 163 164 173 173 170 165 157 158 161 157 155 160 171 215 199 148 132 153 160 164 172 169 169 174 160 134 154 152 169 177 181 174 172 189 176 155 124 79 356 172 76 27 176 177 175 191 186 140 29 35 197 198 148 160 115 99 114 139 160 195 177 160 244 225 168 172 242 263 229 177 170 233 235 222 188 162 157 155 155 182 224 244 245
170 174 177 171 165 164 166 173 172 165 158 158 160 158 156 156 160 178 215 194 148 139 146 155 164 167 164 166 172 167 153 140 106 145 160 173 170 165 132 135 126 117 96 34 75 62 359 80 25 27 203 146 99 62 21 21 118 141 155 125 109 118 126 150 200 170 198 231 211 127 156 261 277 241 196 181 215 221 193 159 148 147 145 144 157 199 234 237
168 172 175 169 168 170 168 170 171 163 159 162 160 158 159 159 176 194 188 152 137 139 143 157 162 164 172 173 166 169 159 123 140 148 147 155 156 148 137 133 117 118 144 125 104 81 97 132 123 71 104 151 123 88 39 45 136 147 158 143 127 129 154 176 175 194 227 225 142 72 8 246 240 233 176 110 77 84 168 164 158 154 146 139 136 152 199 208
168 171 171 169 173 176 172 172 169 161 163 164 160 161 163 158 197 206 163 140 152 169 174 171 165 168 181 178 159 160 153 135 162 165 159 164 166 166 170 176 164 152 189 188 159 122 125 120 109 94 155 216 180 117 80 68 176 188 172 162 164 164 175 200 189 198 225 203 96 85 345 246 243 249 256 261 176 156 177 142 141 147 143 136 133 142 169 171
169 169 166 171 179 178 174 171 166 164 166 163 160 165 173 174 196 201 173 160 158 161 165 167 166 169 178 177 159 156 150 145 171 174 168 169 175 179 191 201 180 184 201 172 153 154 157 127 157 155 182 222 218 164 147 170 193 195 181 180 193 179 178 202 193 202 221 155 76 141 269 256 255 261 255 252 193 142 148 136 128 141 143 137 136 151 167 161
170 167 165 173 179 177 176 170 167 168 166 162 162 173 188 194 199 188 180 174 137 144 154 154 156 166 177 179 162 154 142 144 170 169 167 170 176 184 198 205 198 209 160 154 161 182 186 188 180 170 157 191 209 218 156 167 180 193 194 201 211 201 203 207 196 203 188 110 97 165 229 235 228 81 173 166 79 115 159 183 194 182 177 175 166 166 169 163
169 166 163 171 176 178 178 171 170 170 165 163 165 183 191 200 195 184 180 156 141 146 144 145 150 163 177 173 157 161 145 154 173 170 168 176 186 186 187 195 198 192 162 164 168 181 190 200 105 30 348 186 193 298 339 170 176 182 7 249 236 240 165 151 169 146 116 90 156 183 241 256 267 284 193 151 128 164 182 201 223 227 220 217 212 182 173 168
167 163 165 173 176 179 175 171 172 169 165 165 174 193 199 203 181 182 165 132 147 145 136 145 158 168 173 161 165 185 286 135 168 176 179 189 200 191 187 188 186 190 187 173 154 164 179 77 24 23 33 40 14 340 337 293 180 167 172 195 215 16 69 123 149 82 64 263 188 165 236 257 270 270 218 148 151 165 168 197 219 225 226 221 210 191 184 175
163 164 171 177 177 177 173 171 171 169 168 176 196 194 200 172 179 181 145 131 142 145 142 154 172 178 175 168 181 185 166 143 171 185 178 184 206 195 193 185 177 189 200 172 168 214 172 120 18 1 94 51 359 348 24 6 18 145 179 175 141 46 17 208 226 143 191 242 201 162 226 234 220 235 142 140 169 166 164 184 187 197 215 209 194 197 192 179
159 163 170 177 177 174 171 172 171 169 174 204 206 201 198 101 196 149 140 137 143 154 161 165 171 186 182 174 180 179 168 162 179 189 173 175 201 190 185 179 173 185 188 129 158 194 152 128 65 3 67 73 2 303 156 41 2 5 238 175 123 204 213 196 218 209 199 227 231 183 207 239 229 210 151 161 180 177 174 174 174 187 198 190 186 192 187 176
155 159 170 180 177 171 170 171 168 170 184 213 205 206 167 116 245 140 141 143 151 165 177 170 165 186 190 180 171 169 178 179 171 176 181 180 191 186 183 178 167 176 162 125 174 151 100 177 149 72 11 97 92 235 195 174 136 31 301 196 65 264 228 195 209 232 224 225 235 199 185 227 219 207 215 192 165 178 177 167 179 194 188 182 184 185 180 178
154 152 171 182 174 167 167 166 163 172 201 211 205 195 134 124 159 182 150 146 153 174 186 175 166 171 182 181 168 164 182 184 169 179 195 179 174 195 192 180 153 147 133 100 159 156 113 250 161 110 41 186 186 214 211 181 165 172 182 177 179 180 101 242 222 228 269 233 236 234 228 219 163 197 224 189 114 135 167 162 175 181 179 180 183 183 180 180
154 142 168 179 171 162 159 157 163 187 207 214 209 177 143 132 143 167 157 135 116 88 177 168 164 168 170 173 170 162 170 177 174 185 185 177 188 218 200 179 153 136 131 112 178 176 159 190 138 137 176 194 178 32 350 337 166 194 196 189 190 172 148 201 209 157 330 256 249 248 256 240 100 79 239 140 100 97 92 138 162 159 174 181 181 182 181 181
155 137 167 174 170 162 157 156 182 198 206 211 183 120 130 138 145 160 157 136 102 54 84 133 150 165 167 172 170 159 162 171 180 191 191 190 200 202 187 178 161 154 155 144 155 142 82 98 118 132 174 179 95 44 42 313 279 271 249 216 200 188 187 211 216 182 171 196 38 329 279 275 94 57 15 86 89 108 113 183 181 162 180 183 179 179 180 181
164 116 149 170 169 163 162 168 189 198 215 190 127 94 122 142 144 153 163 168 148 98 153 137 128 161 169 174 166 160 166 172 182 194 194 186 193 155 162 168 159 159 162 134 131 135 88 110 121 109 95 109 133 130 128 170 248 251 245 225 212 202 193 213 231 169 161 167 170 212 245 242 117 83 317 77 91 240 234 220 205 184 185 184 179 177 179 180
155 117 137 167 172 168 173 189 186 194 200 172 153 126 126 136 146 159 177 183 170 161 165 145 135 169 151 153 163 168 172 178 199 203 193 178 173 97 152 166 162 167 178 175 172 174 173 157 138 139 148 168 189 191 189 192 209 229 224 201 207 190 119 106 168 195 204 193 189 214 245 241 136 123 216 167 163 225 246 222 203 186 184 182 176 175 178 178
137 120 136 162 174 181 198 225 190 193 186 175 174 164 149 127 149 171 176 166 147 158 158 134 127 129 117 135 153 171 178 178 193 186 159 177 168 77 156 174 175 181 185 173 168 168 175 182 162 166 174 179 196 206 202 190 184 214 215 189 198 190 165 173 196 216 224 196 181 213 243 237 124 164 204 172 173 203 200 199 200 190 184 182 178 178 179 177
140 131 134 154 176 194 219 256 234 201 184 178 177 174 170 157 144 171 165 150 135 131 116 96 133 124 128 159 156 171 186 172 57 168 176 166 139 42 176 179 184 192 166 147 162 159 159 228 185 195 203 198 209 212 194 167 150 189 203 194 194 196 192 190 194 216 217 186 185 218 232 233 192 186 204 187 179 195 180 180 198 195 189 186 183 182 180 179
145 157 152 153 174 198 219 230 227 210 182 179 176 177 180 167 145 158 185 185 186 170 94 69 157 162 165 171 169 182 187 171 109 169 171 151 103 43 107 161 180 187 152 161 171 157 128 211 197 212 219 209 203 194 175 164 171 199 204 193 185 189 191 191 211 222 203 170 228 228 217 231 223 186 197 201 177 183 187 187 196 196 192 189 186 183 180 179
120 157 173 172 172 194 206 208 209 204 185 182 178 176 180 172 159 168 182 161 174 184 172 133 187 192 177 170 168 173 178 175 175 174 149 134 133 106 97 94 167 182 156 165 178 160 186 207 200 209 219 207 88 110 169 178 193 209 201 186 179 181 185 193 214 225 200 193 240 232 196 217 228 202 201 202 183 189 187 182 189 193 194 194 188 184 181 182
96 108 175 179 174 203 194 189 194 200 193 187 185 183 184 182 176 171 156 137 168 199 208 189 193 196 183 175 171 166 170 176 182 182 158 147 152 140 134 135 172 183 156 156 182 200 219 210 194 199 213 202 101 103 190 187 193 201 190 184 178 179 190 199 212 224 216 217 239 239 208 221 226 211 208 196 184 184 166 169 186 192 195 198 195 189 186 189
112 102 161 172 80 168 185 182 184 196 198 193 193 192 191 191 184 167 148 160 174 189 206 203 189 184 182 182 185 187 187 187 187 179 157 144 156 180 183 171 147 144 149 152 154 194 229 210 154 171 208 196 106 89 183 180 187 188 182 180 174 179 196 208 218 225 222 229 242 246 251 254 228 206 202 180 168 164 154 175 192 197 200 202 200 195 192 198
151 129 138 155 113 165 183 182 186 194 195 195 197 191 193 198 189 163 146 184 183 175 193 198 172 158 168 190 202 210 191 188 195 175 166 164 177 187 189 167 149 146 159 173 155 135 198 210 99 147 202 203 109 117 128 84 58 188 199 187 181 184 197 207 218 219 213 225 237 238 247 254 221 186 189 175 163 169 183 193 197 202 207 208 206 203 204 210
172 159 148 146 131 180 189 180 186 196 198 198 199 186 187 197 189 163 145 200 220 188 188 181 149 130 147 196 205 207 164 150 92 162 172 176 175 175 178 166 164 162 163 168 163 150 165 163 129 173 201 210 28 102 131 105 102 234 222 200 191 196 204 204 214 219 214 219 224 224 236 243 175 162 186 193 187 203 214 214 213 212 211 213 216 216 219 224